San Antonio Stinson, TX

11:48 AM CDT on March 28, 2017 (GMT -0500)
Stinson Municipal

Weather History for KSSF - July, 2014

Change the Weather History Date:

Friday, July 4, 2014

  Actual Average Record
Temperature  
Mean Temperature 80 °F -  
Max Temperature 91 °F 91 °F 104 °F (2016)
Min Temperature 70 °F 71 °F 68 °F (2013)
Cooling Degree Days 16    
Growing Degree Days 30 (Base 50)    
Moisture  
Dew Point 68 °F    
Average Humidity 71    
Maximum Humidity 93    
Minimum Humidity 42    
Precipitation  
Precipitation 0.00 in - - ()
Sea Level Pressure  
Sea Level Pressure 30.11 in    
Wind  
Wind Speed 5 mph (ESE)    
Max Wind Speed 16 mph    
Max Gust Speed 18 mph    
Visibility 10 miles    
Events      
Averages and records for this station are not official NWS values.
T = Trace of Precipitation, MM = Missing Value Source: NWS Daily Summary

Daily Weather History Graph

Daily Weather History Graph

Search for Another Location

Airport or City:

Trip Planner

Search our weather history database for the weather conditions in past years. The results will help you decide how hot, cold, wet, or windy it might be!

Date:

Astronomy

Jul. 04, 2014 Rise Set
Actual Time 6:39 AM CDT 8:37 PM CDT
Civil Twilight 6:12 AM CDT 9:04 PM CDT
Nautical Twilight 5:39 AM CDT 9:37 PM CDT
Astronomical Twilight 5:04 AM CDT 10:11 PM CDT
Moon 1:03 PM CDT (7/4) 12:30 AM CDT (7/4)
Length of Visible Light 14h 52m
Length of Day
13h 58m
Waxing Crescent, 42% of the Moon is Illuminated
Jul 4
Waxing Crescent
Jul 5
First Quarter
Jul 12
Full
Jul 18
Last Quarter
Jul 26
New

Hourly Weather History & Observations

Time (CDT) Temp. Heat Index Dew Point Humidity Pressure Visibility Wind Dir Wind Speed Gust Speed Precip Events Conditions
12:53 AM 73.9 °F - 68.0 °F 82% 30.10 in 10.0 mi East 4.6 mph - N/A   Clear
1:22 AM 73.9 °F - 68.0 °F 82% 30.13 in 10.0 mi ESE 5.8 mph - N/A   Mostly Cloudy
1:53 AM 73.9 °F - 68.0 °F 82% 30.10 in 10.0 mi East 6.9 mph - N/A   Overcast
2:46 AM 73.9 °F - 68.0 °F 82% 30.14 in 10.0 mi East 4.6 mph - N/A   Overcast
2:53 AM 73.0 °F - 68.0 °F 84% 30.10 in 10.0 mi East 3.5 mph - N/A   Mostly Cloudy
3:53 AM 71.1 °F - 68.0 °F 90% 30.10 in 10.0 mi Calm Calm - N/A   Clear
4:53 AM 71.1 °F - 68.0 °F 90% 30.09 in 10.0 mi Calm Calm - N/A   Clear
5:53 AM 70.0 °F - 68.0 °F 93% 30.10 in 10.0 mi Calm Calm - N/A   Clear
6:53 AM 71.1 °F - 69.1 °F 93% 30.12 in 10.0 mi Calm Calm - N/A   Clear
7:53 AM 72.0 °F - 69.1 °F 91% 30.13 in 10.0 mi Calm Calm - N/A   Partly Cloudy
8:53 AM 75.9 °F - 70.0 °F 82% 30.14 in 10.0 mi East 4.6 mph - N/A   Partly Cloudy
9:53 AM 79.0 °F - 71.1 °F 77% 30.15 in 10.0 mi Calm Calm - N/A   Clear
10:18 AM 81.0 °F 84.4 °F 70.0 °F 69% 30.18 in 10.0 mi East 4.6 mph - N/A   Mostly Cloudy
10:43 AM 81.0 °F 84.1 °F 69.1 °F 67% 30.18 in 10.0 mi Variable 3.5 mph - N/A   Partly Cloudy
10:53 AM 82.0 °F 85.5 °F 69.1 °F 65% 30.14 in 10.0 mi SE 5.8 mph - N/A   Scattered Clouds
11:53 AM 84.9 °F 88.8 °F 69.1 °F 59% 30.13 in 10.0 mi SE 6.9 mph - N/A   Partly Cloudy
12:53 PM 84.9 °F 88.2 °F 68.0 °F 57% 30.13 in 10.0 mi Variable 5.8 mph - N/A   Scattered Clouds
1:53 PM 88.0 °F 91.4 °F 68.0 °F 51% 30.12 in 10.0 mi SSE 9.2 mph 18.4 mph N/A   Partly Cloudy
2:53 PM 89.1 °F 92.1 °F 66.9 °F 48% 30.10 in 10.0 mi SSE 11.5 mph - N/A   Scattered Clouds
3:53 PM 90.0 °F 92.4 °F 66.0 °F 45% 30.09 in 10.0 mi SE 12.7 mph - N/A   Partly Cloudy
4:53 PM 91.0 °F 93.8 °F 66.0 °F 44% 30.06 in 10.0 mi SSE 9.2 mph - N/A   Clear
5:53 PM 91.0 °F 93.0 °F 64.9 °F 42% 30.06 in 10.0 mi SSE 11.5 mph - N/A   Partly Cloudy
6:53 PM 84.9 °F 88.2 °F 68.0 °F 57% 30.06 in 10.0 mi SE 15.0 mph - N/A   Partly Cloudy
7:53 PM 84.9 °F 87.1 °F 66.0 °F 53% 30.10 in 10.0 mi East 16.1 mph - N/A   Partly Cloudy
8:53 PM 78.1 °F - 69.1 °F 74% 30.10 in 10.0 mi East 8.1 mph - N/A   Clear
9:53 PM 77.0 °F - 66.9 °F 71% 30.11 in 10.0 mi East 6.9 mph - N/A   Clear
10:53 PM 75.9 °F - 66.9 °F 74% 30.12 in 10.0 mi East 8.1 mph - N/A   Clear
11:53 PM 75.0 °F - 66.9 °F 76% 30.11 in 10.0 mi East 3.5 mph - N/A   Clear